Istanbul, Turkey

10:17 PM +03 on April 25, 2017 (GMT +0300)
Ataturk

Weather History for LTBA - March, 2014

Change the Weather History Date:

Thursday, March 6, 2014

  Actual Average Record
Temperature  
Mean Temperature 54 °F -  
Max Temperature 61 °F 53 °F 66 °F (2015)
Min Temperature 47 °F 40 °F 30 °F (2004)
Degree Days  
Heating Degree Days 11    
Growing Degree Days 4 (Base 50)    
Moisture  
Dew Point 43 °F    
Average Humidity 64    
Maximum Humidity 93    
Minimum Humidity 34    
Precipitation  
Precipitation 0.00 in - - ()
Sea Level Pressure  
Sea Level Pressure 29.95 in    
Wind  
Wind Speed 6 mph ()    
Max Wind Speed 16 mph    
Max Gust Speed -    
Visibility 6.2 miles    
Events      
Averages and records for this station are not official NWS values.
T = Trace of Precipitation, MM = Missing Value Source: Averaged Metar Reports

Daily Weather History Graph

Daily Weather History Graph

Search for Another Location

Airport or City:

Trip Planner

Search our weather history database for the weather conditions in past years. The results will help you decide how hot, cold, wet, or windy it might be!

Date:

Astronomy

Mar. 06, 2014 Rise Set
Actual Time 6:31 AM EET 6:01 PM EET
Civil Twilight 6:04 AM EET 6:28 PM EET
Nautical Twilight 5:32 AM EET 7:00 PM EET
Astronomical Twilight 5:00 AM EET 7:32 PM EET
Moon 9:22 AM EET (3/6) 11:51 PM EET (3/6)
Length of Visible Light 12h 24m
Length of Day
11h 29m
Waxing Crescent, 29% of the Moon is Illuminated
Mar 6
Waxing Crescent
Mar 8
First Quarter
Mar 16
Full
Mar 24
Last Quarter
Mar 30
New

Hourly Weather History & Observations

Time (EET) Temp. Dew Point Humidity Pressure Visibility Wind Dir Wind Speed Gust Speed Precip Events Conditions
12:20 AM 50.0 °F 46.4 °F 87% 29.80 in 6.2 mi SSW 10.4 mph - N/A   Mostly Cloudy
12:50 AM 50.0 °F 44.6 °F 82% 29.83 in 6.2 mi SW 10.4 mph - N/A   Mostly Cloudy
1:20 AM 50.0 °F 44.6 °F 82% 29.83 in 6.2 mi SSW 16.1 mph - N/A   Mostly Cloudy
1:50 AM 50.0 °F 46.4 °F 87% 29.83 in 6.2 mi SW 13.8 mph - N/A   Mostly Cloudy
2:00 AM 50 °F 46 °F 81% 29.86 in 6 mi SW 13.8 mph - -   Partly Cloudy
2:20 AM 50.0 °F 46.4 °F 87% 29.86 in 6.2 mi SW 10.4 mph - N/A   Mostly Cloudy
2:50 AM 50.0 °F 46.4 °F 87% 29.86 in 6.2 mi SW 6.9 mph - N/A   Mostly Cloudy
3:20 AM 50.0 °F 46.4 °F 87% 29.86 in 6.2 mi WSW 3.5 mph - N/A   Mostly Cloudy
3:50 AM 48.2 °F 46.4 °F 93% 29.86 in 6.2 mi Variable 1.2 mph - N/A   Scattered Clouds
4:20 AM 48.2 °F 44.6 °F 87% 29.86 in 6.2 mi SW 6.9 mph - N/A   Scattered Clouds
4:50 AM 48.2 °F 44.6 °F 87% 29.89 in 6.2 mi Variable 2.3 mph - N/A   Scattered Clouds
5:00 AM 49 °F 45 °F 81% 29.89 in 6 mi WSW 2.3 mph - -   Scattered Clouds
5:20 AM 50.0 °F 44.6 °F 82% 29.89 in 6.2 mi SW 5.8 mph - N/A   Mostly Cloudy
5:50 AM 48.2 °F 44.6 °F 87% 29.89 in 6.2 mi South 3.5 mph - N/A   Scattered Clouds
6:20 AM 48.2 °F 44.6 °F 87% 29.89 in 6.2 mi SE 3.5 mph - N/A   Mostly Cloudy
6:50 AM 50.0 °F 44.6 °F 82% 29.89 in 6.2 mi SSW 4.6 mph - N/A   Scattered Clouds
7:20 AM 50.0 °F 44.6 °F 82% 29.92 in 6.2 mi SW 4.6 mph - N/A   Scattered Clouds
7:50 AM 51.8 °F 44.6 °F 76% 29.92 in 6.2 mi SSW 5.8 mph - N/A   Scattered Clouds
8:00 AM 51 °F 44 °F 70% 29.93 in 6 mi SSW 5.8 mph - -   Partly Cloudy
8:20 AM 51.8 °F 44.6 °F 76% 29.92 in 6.2 mi South 5.8 mph - N/A   Scattered Clouds
8:50 AM 53.6 °F 44.6 °F 72% 29.95 in 6.2 mi South 4.6 mph - N/A   Scattered Clouds
9:20 AM 53.6 °F 44.6 °F 72% 29.95 in 6.2 mi South 5.8 mph - N/A   Scattered Clouds
9:50 AM 55.4 °F 44.6 °F 67% 29.95 in 6.2 mi South 5.8 mph - N/A   Scattered Clouds
10:20 AM 55.4 °F 42.8 °F 63% 29.95 in 6.2 mi SE 5.8 mph - N/A   Scattered Clouds
10:50 AM 55.4 °F 42.8 °F 63% 29.95 in 6.2 mi SSE 4.6 mph - N/A   Partly Cloudy
11:00 AM 56 °F 41 °F 46% 29.97 in 6 mi SSE 4.6 mph - -   Scattered Clouds
11:20 AM 57.2 °F 41.0 °F 55% 29.95 in 6.2 mi Variable 1.2 mph - N/A   Partly Cloudy
11:50 AM 59.0 °F 42.8 °F 55% 29.98 in 6.2 mi Variable 1.2 mph - N/A   Partly Cloudy
12:20 PM 59.0 °F 41.0 °F 51% 29.98 in 6.2 mi South 6.9 mph - N/A   Partly Cloudy
12:50 PM 59.0 °F 41.0 °F 51% 29.98 in 6.2 mi SSW 5.8 mph - N/A   Scattered Clouds
1:20 PM 59.0 °F 41.0 °F 51% 29.98 in 6.2 mi Calm Calm - N/A   Partly Cloudy
1:50 PM 60.8 °F 42.8 °F 52% 29.98 in 6.2 mi Variable 1.2 mph - N/A   Partly Cloudy
2:00 PM 60 °F 43 °F 42% 29.98 in 6 mi SSW 1.2 mph - -   Scattered Clouds
2:20 PM 60.8 °F 42.8 °F 52% 29.98 in 6.2 mi SW 4.6 mph - N/A   Partly Cloudy
2:50 PM 60.8 °F 41.0 °F 48% 29.98 in 6.2 mi Calm Calm - N/A   Partly Cloudy
3:20 PM 60.8 °F 41.0 °F 48% 29.98 in 6.2 mi Calm Calm - N/A   Partly Cloudy
3:50 PM 60.8 °F 42.8 °F 52% 29.98 in 6.2 mi West 6.9 mph - N/A   Partly Cloudy
4:20 PM 60.8 °F 42.8 °F 52% 29.98 in 6.2 mi Calm Calm - N/A   Partly Cloudy
4:50 PM 60.8 °F 41.0 °F 48% 29.98 in 6.2 mi Calm Calm - N/A   Partly Cloudy
5:00 PM 60 °F 41 °F 37% 29.99 in 6 mi Calm Calm - -   Scattered Clouds
5:20 PM 60.8 °F 37.4 °F 42% 29.98 in 6.2 mi Calm Calm - N/A   Partly Cloudy
5:50 PM 57.2 °F 42.8 °F 59% 29.98 in 6.2 mi Calm Calm - N/A   Partly Cloudy
6:20 PM 55.4 °F 42.8 °F 63% 29.98 in 6.2 mi Calm Calm - N/A   Partly Cloudy
6:50 PM 55.4 °F 41.0 °F 58% 30.01 in - Calm Calm - N/A   Clear
7:20 PM 53.6 °F 41.0 °F 62% 30.01 in - NW 3.5 mph - N/A   Clear
7:50 PM 60.8 °F 41.0 °F 48% 30.04 in - Variable 4.6 mph - N/A   Clear
8:00 PM 61 °F 40 °F 34% 30.04 in 6 mi ENE 4.6 mph - -  
8:20 PM 59.0 °F 41.0 °F 51% 30.04 in - East 8.1 mph - N/A   Clear
8:50 PM 59.0 °F 41.0 °F 51% 30.04 in - ENE 6.9 mph - N/A   Clear
9:20 PM 57.2 °F 41.0 °F 55% 30.04 in - ENE 9.2 mph - N/A   Clear
9:50 PM 57.2 °F 41.0 °F 55% 30.06 in - East 6.9 mph - N/A   Clear
10:20 PM 57.2 °F 41.0 °F 55% 30.06 in - ENE 5.8 mph - N/A   Clear
10:50 PM 57.2 °F 41.0 °F 55% 30.06 in - NE 5.8 mph - N/A   Clear
11:00 PM 56 °F 40 °F 45% 30.07 in 6 mi NE 5.8 mph - -  
11:20 PM 57.2 °F 41.0 °F 55% 30.06 in - NE 5.8 mph - N/A   Clear
11:50 PM 55.4 °F 41.0 °F 58% 30.06 in - ENE 4.6 mph - N/A   Clear